User: anonymous   Login
Location: Grasslands National Park East Block
(49.0708°N, 106.5295°W)
Time: 09:38:05
(UTC-06:00)
Language:

A-11 Canister half - Orbit

View from above orbital plane
View from above orbital plane
View from above satellite
View from above satellite

Ground track
Ground track

The orbit data is extracted from the following two-line orbital elements,

1    53U 60009E   19265.30764335 -.00000146  00000-0 -59382-3 0  9990
2    53  47.2790   8.9791 0097052   5.9720 354.2204 12.17228974635781
Epoch (UTC): 22 September 2019 07:23:00
Eccentricity: 0.0097052
inclination: 47.2790°
perigee height: 1527 km
apogee height: 1682 km
right ascension of ascending node: 8.9791°
argument of perigee: 5.9720°
revolutions per day: 12.17228974
mean anomaly at epoch: 354.2204°
orbit number at epoch: 63578

The dashed part of the orbit path shows where the satellite is in the earth's shadow,  

DLR